Farwell-Lumberjack Run

Saturday, July 28, 2018 8:00 AM (GMT-4) - Preliminary results

Race info
Sport: Running - road
Location: Farwell, MI, United States
Start type: Manual wave start
Wave grouping: By distance
Racers: 38
Timed on: iPhone
Timed with: Webscorer PRO 3.0
Updated: Saturday, July 28, 2018 12:01 PM (GMT-4)

Contact organizer

Use this form to send an email to the organizer.

Your name
Your email address
Confirm email address
Message to organizer
Send

Farwell-Lumberjack Run

Place Bib Racer name Category Age Gender Finish time
127Hunter FougnerMens 15-1916M 1:22:07.7--100%29.65%25.91%
235Joshua SkampoMens 30-3936M 1:26:26.6+4:18.9+5.25%95.01%25.95%22.02%
377Weston RackleyMens 15-1919M 1:26:59.8+4:52.1+5.93%94.40%25.48%21.52%
46Alexander StanekMens 20-2923M 1:33:06.7+10:59.0+13.37%88.20%20.24%16.01%
537Justin ScullyMens 20-2926M 1:33:09.5+11:01.8+13.43%88.16%20.20%15.96%
612Caden HoezeeMens 15-1915M 1:33:51.3+11:43.6+14.28%87.51%19.60%15.34%
791Roger YobMens 50-59M 1:37:28.8+15:21.1+18.69%84.25%16.50%12.07%
826Hannah GarnWomens 20-2922F 1:38:31.1+16:23.4+19.96%83.36%15.61%11.13%
94Adam JasonMens 15-1918M 1:38:49.6+16:41.9+20.33%83.10%15.35%10.85%
936Julian AbbottMens 15-1918M 1:38:49.6+16:41.9+20.33%83.10%15.35%10.85%
922Gabe GoosenMens 15-1917M 1:38:49.6+16:41.9+20.33%83.10%15.35%10.85%
1229Janine FrancisWomens 20-2927F 1:41:53.3+19:45.6+24.06%80.61%12.72%8.09%
1331Jeffrey SchlickerMens 20-2921M 1:44:19.8+22:12.1+27.03%78.72%10.63%5.89%
1451Meg CenterWomens 20-2929F 1:44:27.3+22:19.6+27.19%78.63%10.52%5.77%
1518Dave BaxterMens 40-4940M 1:45:55.3+23:47.6+28.97%77.54%9.27%4.45%
163Adam AshleyMens 15-1917M 1:46:31.3+24:23.6+29.70%77.10%8.75%3.91%
1746Logan LevandoskiMens 15-1916M 1:50:11.3+28:03.6+34.17%74.53%5.61%0.60%
1840Kenneth TotengcoMens 15-1917M 1:51:31.3+29:23.6+35.79%73.64%4.47%-0.60%
1960Patrick HernandezMens 20-2927M 1:52:36.6+30:28.9+37.11%72.93%3.54%-1.58%
2069Skyler ZokoeMens 15-1917M 1:52:49.6+30:41.9+37.38%72.79%3.35%-1.78%
2171Sydney ShawWomens 20-2922F 1:53:27.4+31:19.7+38.15%72.39%2.81%-2.35%
225Aimee RitchieWomens 40-4942F 1:56:55.8+34:48.1+42.37%70.24%-0.16%-5.48%
2388Karl HauserMens 50-59M 1:58:16.1+36:08.4+44.00%69.44%-1.31%-6.69%
2411Brian KlesmithMens 30-3932M 2:00:33.3+38:25.6+46.79%68.13%-3.27%-8.75%
2563Rachel OstergaardWomens 20-2924F 2:07:06.3+44:58.6+54.76%64.61%-8.88%-14.66%
2676Wendy KikWomens 50-5943F 2:07:12.1+45:04.4+54.88%64.57%-8.96%-14.75%
2765Robert CrawMens 50-5951M 2:10:35.6+48:27.9+59.01%62.89%-11.87%-17.81%
2872Teresa MartinWomens 50-59F 2:14:35.7+52:28.0+63.88%61.02%-15.29%-21.42%
2956Nick PrzybycielMens 30-3936M 2:20:36.7+58:29.0+71.21%58.41%-20.45%-26.84%
3062Phil """"Puma"""" MataMens 40-4947M 2:22:43.6+1:00:35.9+73.78%57.54%-22.26%-28.75%
3175Tommie PhinneyWomens 15-1916F 2:25:44.6+1:03:36.9+77.46%56.35%-24.84%-31.47%
3253Melissa KeuvelaarWomens 30-3935F 2:35:25.1+1:13:17.4+89.24%52.84%-33.13%-40.20%
3321Eva KaltenbachWomens 30-3936F 3:01:19.8+1:39:12.1+120.79%45.29%-55.33%-63.57%
3458Novalee CompagnariWomens 15-1916F 3:36:14.5+2:14:06.8+163.30%37.98%-85.23%-95.07%
-24Gracie GoreWomens 15-1917F DNF-----
-39Katherine CoyleWomens 15-1918F DNF-----
-42Lauren WingerWomens 14 & under14F DNF-----
-70Stephen PankowskiMens 50-5956M DNF-----